This demonstration page uses our WeatherBlox Daily Observations layout. Learn more.

36.17497, -115.13722

Hourly Observations for July 31, 2018

Temp ( °F °C ) Dew Point ( °F °C ) Humidity (%) Winds ( mph kmh ) Pressure ( in mb ) Visibility ( mi km ) Precip ( " mm )
12:53 am 00:53 Clear 92 33.3 57 13.9 31 31 W 6 9 29.91 1013 10 16.09344 0 0
1:53 am 01:53 Clear 92 33.3 56 13.3 30 30 Calm 29.88 1012 10 16.09344 0 0
2:53 am 02:53 Clear 91 32.8 56 13.3 31 31 SSW 3 6 29.85 1011 10 16.09344 0 0
3:53 am 03:53 Clear 89 31.7 59 15 36 36 SSW 13 20 29.88 1012 10 16.09344 0 0
4:53 am 04:53 Clear 89 31.7 59 15 36 36 S 7 11 29.88 1012 10 16.09344 0 0
5:53 am 05:53 Sunny 86 30 60 15.6 42 42 ESE 8 13 29.91 1013 10 16.09344 0 0
6:53 am 06:53 Sunny 87 30.6 61 16.1 42 42 SE 7 11 29.94 1014 10 16.09344 0 0
7:53 am 07:53 Sunny 89 31.7 59 15 36 36 Calm 29.91 1013 10 16.09344 0 0
8:53 am 08:53 Sunny 90 32.2 60 15.6 37 37 N 5 7 29.94 1014 10 16.09344 0 0
9:53 am 09:53 Sunny 92 33.3 59 15 33 33 Calm 29.94 1014 10 16.09344 0 0
10:53 am 10:53 Sunny 96 35.6 59 15 29 29 ENE 3 6 29.91 1013 10 16.09344 0 0
11:53 am 11:53 Sunny 98 36.7 58 14.4 26 26 Calm 29.91 1013 10 16.09344 0 0
12:53 pm 12:53 Sunny 101 38.3 58 14.4 24 24 ESE 3 6 29.88 1012 10 16.09344 0 0
1:53 pm 13:53 Sunny 102 38.9 56 13.3 22 22 SE 3 6 29.85 1011 10 16.09344 0 0
2:53 pm 14:53 Sunny 104 40 53 11.7 18 18 N 7 11 29.83 1010 10 16.09344 0 0
3:53 pm 15:53 Sunny 104 40 54 12.2 19 19 Calm 29.8 1009 10 16.09344 0 0
4:53 pm 16:53 Sunny 106 41.1 55 12.8 19 19 E 8 13 29.8 1009 10 16.09344 0 0
5:53 pm 17:53 Sunny 104 40 55 12.8 20 20 ENE 10 17 29.77 1008 10 16.09344 0 0
6:53 pm 18:53 Sunny 104 40 55 12.8 20 20 NE 7 11 29.77 1008 10 16.09344 0 0
7:53 pm 19:53 Clear 103 39.4 54 12.2 20 20 ENE 3 6 29.8 1009 10 16.09344 0 0
8:53 pm 20:53 Clear 102 38.9 53 11.7 19 19 SW 7 11 29.8 1009 10 16.09344 0 0
9:53 pm 21:53 Clear 101 38.3 56 13.3 22 22 WSW 5 7 29.83 1010 10 16.09344 0 0
10:53 pm 22:53 Clear 99 37.2 54 12.2 22 22 SSW 5 7 29.83 1010 10 16.09344 0 0
11:53 pm 23:53 Clear 98 36.7 54 12.2 23 23 SW 8 13 29.83 1010 10 16.09344 0 0

Powered by AerisWeather